Simultaneous Nadir Overpasses (SNOs) Predictions

Prediction of SNOs between GOES-16 and NOAA-19 Satellite Orbit:

Table of predicted SNOs for the next 14.0 days since TLE Epoch: 2/26/2022
Index Date Time (GOES-16) GOES-16 Lat,Lon NOAA-19 Lat,Lon Distance(km) Time Diff (sec)
1 02/26/2022 12:45:46 -0.00, -75.22 0.68, -78.09 328.08 80
2 02/27/2022 12:31:19 -0.00, -75.22 -0.02, -75.22 1.77 80
3 02/28/2022 12:19:30 0.00, -75.22 -0.66, -72.33 329.78 80
4 03/03/2022 00:43:01 -0.02, -75.22 -0.47, -77.27 233.93 80
5 03/04/2022 00:28:33 -0.02, -75.23 0.16, -74.38 95.92 80
6 03/05/2022 00:16:45 -0.02, -75.24 0.86, -71.51 425.90 80
7 03/06/2022 12:51:47 0.02, -75.29 0.93, -79.26 453.05 80
8 03/07/2022 12:39:58 0.02, -75.30 0.29, -76.37 122.75 80
9 03/08/2022 12:25:31 0.02, -75.32 -0.42, -73.50 207.67 80
10 03/11/2022 00:49:01 -0.02, -75.34 -0.75, -78.43 353.91 80
11 03/12/2022 00:37:14 -0.02, -75.35 -0.05, -75.56 23.24 80
